Time,TemperatureF,DewpointF,PressureIn,WindDirection,WindDirectionDegrees,WindSpeedMPH,WindSpeedGustMPH,Humidity,HourlyPrecipIn,Conditions,Clouds,dailyrainin,SoftwareType,DateUTC
2013-01-25 00:06:00,-5.5,-11.0,30.33,East,82,0.0,-999.0,77,-99.99,,,0.00,weatherlink.com 1.10,2013-01-25 05:06:00,
2013-01-25 00:21:00,-6.4,-12.0,30.33,East,82,0.0,-999.0,78,-99.99,,,0.00,weatherlink.com 1.10,2013-01-25 05:21:00,
2013-01-25 00:36:00,-6.5,-11.0,30.34,East,82,0.0,-999.0,79,-99.99,,,0.00,weatherlink.com 1.10,2013-01-25 05:36:00,
2013-01-25 00:51:00,-7.0,-12.0,30.33,East,82,0.0,-999.0,80,-99.99,,,0.00,weatherlink.com 1.10,2013-01-25 05:51:00,
2013-01-25 01:06:00,-6.3,-10.0,30.33,East,82,0.0,-999.0,83,-99.99,,,0.00,weatherlink.com 1.10,2013-01-25 06:06:00,
2013-01-25 01:21:00,-4.7,-9.0,30.34,East,82,0.0,-999.0,82,-99.99,,,0.00,weatherlink.com 1.10,2013-01-25 06:21:00,
2013-01-25 01:36:00,-3.4,-8.0,30.34,East,82,0.0,-999.0,79,-99.99,,,0.00,weatherlink.com 1.10,2013-01-25 06:36:00,
2013-01-25 01:52:00,-3.5,-9.0,30.33,East,82,0.0,-999.0,79,-99.99,,,0.00,weatherlink.com 1.10,2013-01-25 06:52:00,
2013-01-25 02:07:00,-3.2,-8.0,30.33,East,82,0.0,-999.0,79,-99.99,,,0.00,weatherlink.com 1.10,2013-01-25 07:07:00,
2013-01-25 02:22:00,-2.7,-8.0,30.33,East,82,0.0,-999.0,78,-99.99,,,0.00,weatherlink.com 1.10,2013-01-25 07:22:00,
2013-01-25 02:37:00,-2.4,-8.0,30.33,East,82,0.0,-999.0,78,-99.99,,,0.00,weatherlink.com 1.10,2013-01-25 07:37:00,
2013-01-25 02:52:00,-2.2,-7.0,30.33,East,82,0.0,-999.0,79,-99.99,,,0.00,weatherlink.com 1.10,2013-01-25 07:52:00,
2013-01-25 03:07:00,-2.2,-7.0,30.33,East,82,0.0,-999.0,79,-99.99,,,0.00,weatherlink.com 1.10,2013-01-25 08:07:00,
2013-01-25 03:22:00,-2.1,-7.0,30.34,East,82,0.0,-999.0,78,-99.99,,,0.00,weatherlink.com 1.10,2013-01-25 08:22:00,
2013-01-25 03:37:00,-2.1,-7.0,30.33,East,82,0.0,-999.0,79,-99.99,,,0.00,weatherlink.com 1.10,2013-01-25 08:37:00,
2013-01-25 03:52:00,-1.6,-7.0,30.32,SSW,202,0.0,-999.0,77,-99.99,,,0.00,weatherlink.com 1.10,2013-01-25 08:52:00,
2013-01-25 04:07:00,-1.3,-7.0,30.33,SSW,202,0.0,-999.0,76,-99.99,,,0.00,weatherlink.com 1.10,2013-01-25 09:07:00,
2013-01-25 04:22:00,-1.1,-7.0,30.32,SE,142,0.0,-999.0,75,-99.99,,,0.00,weatherlink.com 1.10,2013-01-25 09:22:00,
2013-01-25 04:37:00,-1.2,-8.0,30.32,SE,142,0.0,-999.0,74,-99.99,,,0.00,weatherlink.com 1.10,2013-01-25 09:37:00,
2013-01-25 04:53:00,-1.6,-8.0,30.33,SE,142,0.0,-999.0,75,-99.99,,,0.00,weatherlink.com 1.10,2013-01-25 09:53:00,
2013-01-25 05:08:00,-2.1,-8.0,30.32,SE,142,0.0,-999.0,76,-99.99,,,0.00,weatherlink.com 1.10,2013-01-25 10:08:00,
2013-01-25 05:23:00,-2.6,-8.0,30.33,East,91,0.0,-999.0,76,-99.99,,,0.00,weatherlink.com 1.10,2013-01-25 10:23:00,
2013-01-25 05:38:00,-3.0,-9.0,30.33,East,91,1.0,-999.0,76,-99.99,,,0.00,weatherlink.com 1.10,2013-01-25 10:38:00,
2013-01-25 05:53:00,-4.0,-10.0,30.33,East,91,0.0,-999.0,77,-99.99,,,0.00,weatherlink.com 1.10,2013-01-25 10:53:00,
2013-01-25 06:08:00,-5.5,-11.0,30.33,East,91,0.0,-999.0,78,-99.99,,,0.00,weatherlink.com 1.10,2013-01-25 11:08:00,
2013-01-25 06:23:00,-6.5,-11.0,30.33,East,91,1.0,-999.0,79,-99.99,,,0.00,weatherlink.com 1.10,2013-01-25 11:23:00,
2013-01-25 06:38:00,-6.5,-11.0,30.33,East,91,0.0,-999.0,81,-99.99,,,0.00,weatherlink.com 1.10,2013-01-25 11:38:00,
2013-01-25 06:53:00,-7.6,-12.0,30.33,East,91,0.0,-999.0,80,-99.99,,,0.00,weatherlink.com 1.10,2013-01-25 11:53:00,
2013-01-25 07:08:00,-6.6,-10.0,30.33,East,91,0.0,-999.0,83,-99.99,,,0.00,weatherlink.com 1.10,2013-01-25 12:08:00,
2013-01-25 07:23:00,-6.8,-11.0,30.33,East,91,0.0,-999.0,80,-99.99,,,0.00,weatherlink.com 1.10,2013-01-25 12:23:00,
2013-01-25 07:39:00,-6.7,-11.0,30.34,East,91,0.0,-999.0,81,-99.99,,,0.00,weatherlink.com 1.10,2013-01-25 12:39:00,
2013-01-25 07:54:00,-6.8,-11.0,30.34,NNW,338,0.0,-999.0,83,-99.99,,,0.00,weatherlink.com 1.10,2013-01-25 12:54:00,
2013-01-25 08:09:00,-6.7,-11.0,30.34,NNW,338,0.0,-999.0,83,-99.99,,,0.00,weatherlink.com 1.10,2013-01-25 13:09:00,
2013-01-25 08:24:00,-5.7,-9.0,30.34,NNW,338,0.0,-999.0,84,-99.99,,,0.00,weatherlink.com 1.10,2013-01-25 13:24:00,
2013-01-25 08:39:00,-3.9,-8.0,30.34,NNW,338,0.0,-999.0,83,-99.99,,,0.00,weatherlink.com 1.10,2013-01-25 13:39:00,
2013-01-25 08:54:00,-2.7,-7.0,30.34,NNW,338,0.0,-999.0,81,-99.99,,,0.00,weatherlink.com 1.10,2013-01-25 13:54:00,
2013-01-25 09:09:00,-1.8,-7.0,30.34,NW,324,1.0,-999.0,79,-99.99,,,0.00,weatherlink.com 1.10,2013-01-25 14:09:00,
2013-01-25 09:24:00,-1.1,-7.0,30.34,NE,44,0.0,-999.0,77,-99.99,,,0.00,weatherlink.com 1.10,2013-01-25 14:24:00,
2013-01-25 09:39:00,-0.6,-6.0,30.34,West,281,1.0,-999.0,76,-99.99,,,0.00,weatherlink.com 1.10,2013-01-25 14:39:00,
2013-01-25 09:54:00,-0.1,-6.0,30.34,NE,47,0.0,-999.0,75,-99.99,,,0.00,weatherlink.com 1.10,2013-01-25 14:54:00,
2013-01-25 10:09:00,0.7,-6.0,30.34,ENE,71,1.0,-999.0,74,-99.99,,,0.00,weatherlink.com 1.10,2013-01-25 15:09:00,
2013-01-25 10:24:00,1.4,-5.0,30.34,SW,230,2.0,-999.0,73,-99.99,,,0.00,weatherlink.com 1.10,2013-01-25 15:24:00,
2013-01-25 10:39:00,2.1,-5.0,30.33,East,92,1.0,-999.0,72,-99.99,,,0.00,weatherlink.com 1.10,2013-01-25 15:39:00,
2013-01-25 10:54:00,3.0,-5.0,30.32,SSW,205,1.0,-999.0,70,-99.99,,,0.00,weatherlink.com 1.10,2013-01-25 15:54:00,
2013-01-25 11:09:00,3.5,-5.0,30.32,SSW,205,0.0,-999.0,69,-99.99,,,0.00,weatherlink.com 1.10,2013-01-25 16:09:00,
2013-01-25 11:24:00,4.3,-4.0,30.30,NW,309,1.0,-999.0,67,-99.99,,,0.00,weatherlink.com 1.10,2013-01-25 16:24:00,
2013-01-25 11:39:00,4.5,-5.0,30.29,NW,325,1.0,-999.0,66,-99.99,,,0.00,weatherlink.com 1.10,2013-01-25 16:39:00,
2013-01-25 11:54:00,5.4,-4.0,30.28,NW,325,0.0,-999.0,65,-99.99,,,0.00,weatherlink.com 1.10,2013-01-25 16:54:00,
2013-01-25 12:10:00,6.8,-3.0,30.27,ENE,65,1.0,-999.0,63,-99.99,,,0.00,weatherlink.com 1.10,2013-01-25 17:10:00,
2013-01-25 12:25:00,7.7,-4.0,30.27,WSW,248,3.0,-999.0,60,-99.99,,,0.00,weatherlink.com 1.10,2013-01-25 17:25:00,
2013-01-25 12:40:00,8.0,-3.0,30.26,WNW,284,1.0,-999.0,61,-99.99,,,0.00,weatherlink.com 1.10,2013-01-25 17:40:00,
2013-01-25 12:55:00,8.6,-4.0,30.24,NW,307,0.0,-999.0,58,-99.99,,,0.00,weatherlink.com 1.10,2013-01-25 17:55:00,
2013-01-25 13:10:00,8.8,-4.0,30.24,NW,307,0.0,-999.0,57,-99.99,,,0.00,weatherlink.com 1.10,2013-01-25 18:10:00,
2013-01-25 13:25:00,9.7,-3.0,30.23,SSW,196,0.0,-999.0,56,-99.99,,,0.00,weatherlink.com 1.10,2013-01-25 18:25:00,
2013-01-25 13:40:00,10.9,-3.0,30.22,WNW,290,1.0,-999.0,54,-99.99,,,0.00,weatherlink.com 1.10,2013-01-25 18:40:00,
2013-01-25 13:55:00,11.4,-4.0,30.22,West,265,0.0,-999.0,51,-99.99,,,0.00,weatherlink.com 1.10,2013-01-25 18:55:00,
2013-01-25 14:10:00,11.4,-4.0,30.21,WNW,300,1.0,-999.0,51,-99.99,,,0.00,weatherlink.com 1.10,2013-01-25 19:10:00,
2013-01-25 14:25:00,11.8,-5.0,30.21,WNW,292,0.0,-999.0,48,-99.99,,,0.00,weatherlink.com 1.10,2013-01-25 19:25:00,
2013-01-25 14:41:00,11.3,-5.0,30.21,WNW,287,1.0,-999.0,48,-99.99,,,0.00,weatherlink.com 1.10,2013-01-25 19:41:00,
2013-01-25 14:55:00,11.6,-5.0,30.20,SSE,159,0.0,-999.0,48,-99.99,,,0.00,weatherlink.com 1.10,2013-01-25 19:55:00,
2013-01-25 15:11:00,11.3,-4.0,30.20,SW,215,0.0,-999.0,51,-99.99,,,0.00,weatherlink.com 1.10,2013-01-25 20:11:00,
2013-01-25 15:26:00,10.8,-5.0,30.20,SW,215,0.0,-999.0,48,-99.99,,,0.00,weatherlink.com 1.10,2013-01-25 20:26:00,
2013-01-25 15:41:00,10.7,-5.0,30.20,SW,215,0.0,-999.0,49,-99.99,,,0.00,weatherlink.com 1.10,2013-01-25 20:41:00,
2013-01-25 15:56:00,10.2,-5.0,30.20,SW,215,0.0,-999.0,50,-99.99,,,0.00,weatherlink.com 1.10,2013-01-25 20:56:00,
2013-01-25 16:11:00,9.9,-5.0,30.20,SW,215,0.0,-999.0,52,-99.99,,,0.00,weatherlink.com 1.10,2013-01-25 21:11:00,
2013-01-25 16:26:00,9.6,-5.0,30.19,SW,215,0.0,-999.0,51,-99.99,,,0.00,weatherlink.com 1.10,2013-01-25 21:26:00,
2013-01-25 16:41:00,9.2,-5.0,30.19,SW,215,0.0,-999.0,54,-99.99,,,0.00,weatherlink.com 1.10,2013-01-25 21:41:00,
2013-01-25 16:56:00,9.0,-2.0,30.19,SW,215,0.0,-999.0,61,-99.99,,,0.00,weatherlink.com 1.10,2013-01-25 21:56:00,
2013-01-25 17:11:00,8.8,-4.0,30.20,SW,215,0.0,-999.0,56,-99.99,,,0.00,weatherlink.com 1.10,2013-01-25 22:11:00,
2013-01-25 17:26:00,8.9,-4.0,30.20,SW,215,0.0,-999.0,55,-99.99,,,0.00,weatherlink.com 1.10,2013-01-25 22:26:00,
2013-01-25 17:41:00,8.9,-5.0,30.20,SW,215,0.0,-999.0,53,-99.99,,,0.00,weatherlink.com 1.10,2013-01-25 22:41:00,
2013-01-25 17:56:00,8.8,-5.0,30.19,SW,215,0.0,-999.0,54,-99.99,,,0.00,weatherlink.com 1.10,2013-01-25 22:56:00,
2013-01-25 18:11:00,8.6,-5.0,30.19,SW,215,0.0,-999.0,55,-99.99,,,0.00,weatherlink.com 1.10,2013-01-25 23:11:00,
2013-01-25 18:27:00,8.5,-4.0,30.17,SW,215,0.0,-999.0,56,-99.99,,,0.00,weatherlink.com 1.10,2013-01-25 23:27:00,
2013-01-25 18:41:00,8.3,-4.0,30.16,SW,215,0.0,-999.0,58,-99.99,,,0.00,weatherlink.com 1.10,2013-01-25 23:41:00,
2013-01-25 18:57:00,8.1,-3.0,30.15,SW,215,0.0,-999.0,61,-99.99,,,0.00,weatherlink.com 1.10,2013-01-25 23:57:00,
2013-01-25 19:12:00,7.7,-3.0,30.15,SW,215,0.0,-999.0,63,-99.99,,,0.00,weatherlink.com 1.10,2013-01-26 00:12:00,
2013-01-25 19:27:00,7.2,-3.0,30.13,SW,215,0.0,-999.0,62,-99.99,,,0.00,weatherlink.com 1.10,2013-01-26 00:27:00,
2013-01-25 19:42:00,7.1,-2.0,30.13,SW,215,0.0,-999.0,66,-99.99,,,0.00,weatherlink.com 1.10,2013-01-26 00:42:00,
2013-01-25 19:57:00,7.0,-2.0,30.13,SW,215,0.0,-999.0,67,-99.99,,,0.00,weatherlink.com 1.10,2013-01-26 00:57:00,
2013-01-25 20:12:00,7.1,-3.0,30.13,SW,215,0.0,-999.0,63,-99.99,,,0.00,weatherlink.com 1.10,2013-01-26 01:12:00,
2013-01-25 20:27:00,7.3,-2.0,30.12,SW,215,0.0,-999.0,66,-99.99,,,0.00,weatherlink.com 1.10,2013-01-26 01:27:00,
2013-01-25 20:42:00,7.4,-3.0,30.12,SW,215,0.0,-999.0,63,-99.99,,,0.00,weatherlink.com 1.10,2013-01-26 01:42:00,
2013-01-25 20:57:00,7.4,-3.0,30.12,SW,215,0.0,-999.0,63,-99.99,,,0.00,weatherlink.com 1.10,2013-01-26 01:57:00,
2013-01-25 21:12:00,7.4,-3.0,30.11,SW,215,0.0,-999.0,62,-99.99,,,0.00,weatherlink.com 1.10,2013-01-26 02:12:00,
2013-01-25 21:27:00,7.5,-1.0,30.12,SW,215,0.0,-999.0,67,-99.99,,,0.00,weatherlink.com 1.10,2013-01-26 02:27:00,
2013-01-25 21:42:00,7.6,-2.0,30.12,SW,215,0.0,-999.0,64,-99.99,,,0.00,weatherlink.com 1.10,2013-01-26 02:42:00,
2013-01-25 21:57:00,7.6,-2.0,30.11,SW,215,0.0,-999.0,64,-99.99,,,0.00,weatherlink.com 1.10,2013-01-26 02:57:00,
2013-01-25 22:12:00,7.6,-2.0,30.11,SW,215,0.0,-999.0,64,-99.99,,,0.00,weatherlink.com 1.10,2013-01-26 03:12:00,
2013-01-25 22:28:00,7.5,-2.0,30.10,SW,215,0.0,-999.0,64,-99.99,,,0.00,weatherlink.com 1.10,2013-01-26 03:28:00,
2013-01-25 22:43:00,7.4,-2.0,30.10,SW,215,0.0,-999.0,65,-99.99,,,0.00,weatherlink.com 1.10,2013-01-26 03:43:00,
2013-01-25 22:58:00,7.4,-2.0,30.10,SW,215,0.0,-999.0,66,-99.99,,,0.00,weatherlink.com 1.10,2013-01-26 03:58:00,
2013-01-25 23:13:00,7.4,-3.0,30.10,SW,215,0.0,-999.0,64,-99.99,,,0.00,weatherlink.com 1.10,2013-01-26 04:13:00,
2013-01-25 23:28:00,7.5,-2.0,30.10,SW,215,0.0,-999.0,64,-99.99,,,0.00,weatherlink.com 1.10,2013-01-26 04:28:00,
2013-01-25 23:43:00,7.4,-3.0,30.09,SW,215,0.0,-999.0,64,-99.99,,,0.00,weatherlink.com 1.10,2013-01-26 04:43:00,
2013-01-25 23:58:00,7.3,-3.0,30.09,SW,215,0.0,-999.0,64,-99.99,,,0.00,weatherlink.com 1.10,2013-01-26 04:58:00,